Temp_Advection
nan nan nan nan nan nan nan nan nan nan nan nan nan nan nan nan nan nan nan nan nan nan nan nan nan nan nan nan nan nan nan nan nan nan nan nan nan nan nan nan nan nan nan nan
nan -1 -3 -1 1 -1 -1 -1 -1 0 0 0 -0 -0 -1 -0 -0 0 1 0 0 -0 -0 -0 0 0 -0 0 0 -0 -0 -0 -0 -0 -0 -0 -0 0 0 -0 -0 -0 -0 nan
nan -1 -1 1 1 -1 -1 -1 -1 0 0 0 -0 -0 -1 -1 1 1 0 0 0 -0 -0 -0 -0 -0 1 1 0 -0 -0 -0 -0 -0 -0 -0 -1 -0 0 0 -0 -0 -0 nan
nan -0 -1 0 0 -1 -1 -2 -1 0 0 0 0 -0 -1 -0 0 0 -0 1 0 0 -0 -0 -0 -0 1 1 0 0 -0 -0 -0 -0 -0 -0 0 0 -0 -0 -0 -0 -0 nan
nan -0 -1 -0 -1 -1 -1 -1 1 0 0 0 -0 -1 -1 0 -0 -0 0 1 1 0 0 0 0 0 1 1 0 0 0 -0 -0 -0 -0 -0 -0 -0 -0 -0 -0 -0 -0 nan
nan -1 -0 0 1 0 -1 1 1 1 0 -0 -1 -1 -1 0 0 -0 0 1 0 0 0 0 -0 0 1 1 0 0 0 0 0 -0 -0 -0 -0 -0 -0 -0 -0 -0 -0 nan
nan -0 -0 0 0 -1 1 1 0 0 0 -1 0 0 -0 -0 0 0 0 0 0 0 -0 0 -0 -0 1 1 0 0 0 0 0 0 -0 -0 -0 -0 -0 -0 -0 -0 -0 nan
nan -0 -0 -0 -1 -0 1 -0 -0 -1 -1 -1 0 -0 -0 -0 0 0 0 0 -0 -0 -0 -0 -0 -0 0 1 1 0 0 0 0 0 0 -0 -0 -0 -0 -0 -0 -0 -0 nan
nan -0 -0 -1 -1 0 -0 -2 0 0 0 -0 -0 -0 0 0 0 0 0 -0 -0 -0 -0 -0 -0 -0 -0 1 0 0 0 0 0 0 0 0 -0 -0 -0 -0 -0 -0 -0 nan
nan -0 -0 -0 0 -0 -1 0 0 -0 0 0 -0 -0 -0 -0 -0 -0 0 -0 -0 -0 0 0 -0 -0 -0 0 0 0 0 0 0 0 0 0 -0 -0 -0 -0 -0 -0 -0 nan
nan 0 -0 -1 0 -1 -0 0 -1 -0 -0 -0 0 0 0 -0 -0 -0 0 0 -0 0 0 0 0 0 0 0 0 0 0 0 0 0 0 0 -0 -0 -0 -0 -0 -0 -0 nan
nan -0 -0 1 0 -0 -0 -1 -1 0 0 -0 -0 0 0 -0 -0 0 0 0 0 0 0 0 0 0 0 0 1 1 1 0 0 0 0 0 -0 -0 -0 -0 -0 -0 -0 nan
nan -0 -0 0 0 -0 0 -1 -0 -0 -0 0 -0 0 0 -0 -0 0 0 0 0 0 0 0 0 0 -0 0 1 1 1 0 0 0 0 0 -0 -0 -0 -0 -0 -0 -0 nan
nan -0 -1 -0 -1 -1 -1 -0 0 0 -0 -0 -0 0 -0 -0 -0 -0 0 0 0 0 0 0 0 0 0 0 1 1 0 -0 0 0 0 0 -0 -0 -0 -0 -0 -0 -0 nan
nan -0 -0 -0 -0 -1 -1 -1 -0 -0 -0 -0 -0 -0 -0 -0 -0 -0 -0 -0 -0 0 0 0 0 0 0 0 0 0 -0 -0 0 0 0 0 -0 -0 -0 -0 -0 -0 -0 nan
nan -0 -0 0 -0 -0 0 -0 -0 -0 -1 -1 -0 -1 -0 0 0 0 0 0 0 0 0 1 0 0 0 1 1 0 -0 0 0 0 0 -0 -0 -0 -0 -0 -0 -0 -0 nan
nan -0 -0 0 0 0 -0 -0 -0 -0 -1 -0 -0 -1 1 0 0 0 1 1 1 1 1 1 1 1 1 1 1 0 0 0 0 0 0 -0 -0 -0 -0 -0 -0 -0 -0 nan
nan -0 0 0 0 -0 0 -0 -0 0 -0 -0 -1 0 -0 0 1 1 1 1 1 1 0 0 0 1 1 1 0 -0 0 0 0 0 0 -0 -0 -0 -0 0 -0 0 0 nan
nan 0 0 0 -0 -1 0 0 0 -0 -0 -1 -0 1 0 -0 -1 -0 1 1 0 0 0 0 0 0 0 0 0 0 0 0 0 0 0 -0 -0 -0 -0 -0 0 0 0 nan
nan 0 0 0 -0 -0 -0 -0 0 0 -0 -0 1 1 0 0 -0 -0 -0 1 1 0 0 0 0 0 0 0 0 0 0 0 0 0 0 -0 -0 -0 -0 -0 0 0 0 nan
nan 0 0 0 -0 -1 -0 0 0 0 -0 -0 1 1 1 1 -1 -0 0 0 0 0 0 0 0 0 0 0 0 0 0 0 0 -0 -0 0 0 -0 -0 -0 -0 0 0 nan
nan -1 -0 -0 -0 -0 0 0 0 -0 0 0 1 1 0 -1 0 -0 0 0 0 0 0 0 0 0 0 0 0 0 0 0 -0 -0 0 0 0 -0 -0 -0 -0 0 0 nan
nan -1 -1 -1 0 -0 0 -0 -0 0 0 0 0 0 0 -0 -0 0 0 0 0 0 0 0 0 0 0 0 0 0 0 0 0 0 -0 -0 -0 0 0 -0 -0 -0 -0 nan
nan 0 0 0 0 0 0 0 0 1 0 0 0 0 0 -0 -0 -0 0 0 0 0 0 0 0 0 0 0 0 0 0 0 0 0 0 -0 -0 -0 0 0 0 0 0 nan
nan -0 0 -0 -0 -0 -0 0 0 1 1 0 0 -0 0 -0 -0 -0 -0 0 0 0 0 0 0 0 0 0 0 0 0 0 0 -0 -0 0 0 -0 -0 0 0 0 0 nan
nan nan nan nan nan nan nan nan nan nan nan nan nan nan nan nan nan nan nan nan nan nan nan nan nan nan nan nan nan nan nan nan nan nan nan nan nan nan nan nan nan nan nan nan
Wind_Speed
26 12 18 28 27 20 23 18 24 19 22 22 17 20 19 20 18 14 13 13 12 10 8 8 10 11 13 14 15 15 15 14 13 13 12 11 10 9 8 8 8 8 8 10
17 19 27 28 22 27 23 22 23 13 14 11 14 18 19 15 19 20 17 16 16 14 12 12 12 14 14 16 16 16 15 14 13 13 14 13 12 12 11 10 8 9 9 11
23 20 27 27 22 26 26 20 19 14 13 11 12 17 20 19 18 10 15 18 18 18 17 16 15 15 15 18 18 17 16 16 15 15 15 15 13 12 10 8 8 9 11 14
17 21 23 29 28 22 27 19 17 13 12 9 14 7 16 14 13 11 14 20 21 20 18 17 17 16 17 19 18 16 15 15 15 14 14 12 10 10 9 8 9 11 14 17
13 13 24 29 25 21 16 25 16 14 11 2 12 6 15 12 15 11 14 21 22 21 20 19 17 17 18 18 17 16 15 15 15 13 12 11 10 9 8 8 10 13 17 21
21 21 25 23 20 22 9 17 10 12 5 7 13 12 10 12 13 16 16 22 23 22 20 18 17 17 18 18 17 16 15 15 13 12 11 10 9 8 7 9 12 15 18 21
11 17 3 10 14 21 15 16 6 5 5 7 7 10 13 9 5 9 16 23 24 23 22 20 19 17 17 17 16 15 14 14 12 10 9 7 5 5 7 9 12 16 19 22
7 7 9 9 11 9 18 16 7 7 9 13 7 7 5 7 3 10 20 24 25 23 21 20 18 17 16 16 15 14 13 12 11 8 6 4 3 3 6 9 13 16 19 20
6 6 2 16 13 16 9 19 2 4 5 10 8 9 7 5 7 9 19 25 26 25 22 21 18 16 15 15 14 13 12 11 9 7 5 2 1 4 8 11 14 17 19 20
5 4 1 5 13 3 6 11 6 3 7 6 8 8 6 10 8 11 15 25 26 24 22 21 19 17 15 15 15 13 12 11 9 6 4 1 2 6 9 13 16 18 19 19
9 1 3 11 5 11 3 7 5 3 3 4 7 5 10 6 5 9 14 25 27 26 24 22 19 17 15 15 15 14 12 11 9 6 4 3 5 7 11 14 17 18 18 18
9 5 2 8 4 14 12 9 12 6 5 4 4 5 7 4 4 6 14 22 25 24 23 21 19 18 16 15 15 14 12 11 10 7 5 5 7 9 13 16 18 17 17 17
13 3 3 5 8 3 2 11 17 11 3 11 7 5 5 5 6 6 12 20 24 23 22 21 20 18 16 15 14 13 12 12 10 8 6 6 9 12 15 17 17 17 16 18
5 8 6 4 7 12 11 15 17 15 9 10 11 7 10 7 7 8 13 18 22 23 23 21 20 17 16 14 14 13 12 12 11 9 7 8 11 14 17 17 17 16 18 21
4 6 6 2 4 14 14 19 18 18 17 11 12 14 9 10 8 10 15 20 22 22 22 21 19 17 16 15 13 13 13 12 11 9 8 9 12 15 16 16 16 18 21 23
13 4 4 4 2 6 13 16 20 22 22 21 17 15 2 2 10 10 15 20 21 21 20 19 17 16 16 15 14 14 13 12 10 9 8 11 14 16 16 16 18 20 22 24
9 6 3 2 6 5 9 18 19 20 21 20 20 18 11 7 8 12 13 15 16 16 16 16 16 15 15 15 14 13 12 12 9 7 8 11 14 16 17 18 20 21 23 25
13 9 3 2 5 6 2 3 17 21 19 20 20 14 5 9 9 8 7 10 11 11 11 11 13 13 14 14 13 13 12 10 8 7 9 12 15 16 17 19 20 22 23 26
9 7 2 3 4 9 8 3 6 16 17 19 18 17 8 11 17 9 8 10 11 10 9 9 11 12 13 14 14 12 10 8 6 7 10 12 16 17 18 20 22 25 27 30
6 8 4 1 3 4 4 2 1 6 10 4 16 13 14 19 8 7 12 10 10 8 8 9 10 11 11 12 11 10 8 6 7 9 11 14 16 18 19 22 25 26 28 30
3 2 4 3 4 7 5 6 6 6 2 3 7 15 20 12 5 22 16 11 9 7 7 7 8 9 10 10 9 8 7 6 8 10 14 15 16 19 20 24 26 29 29 30
8 7 4 4 5 8 10 6 4 3 6 8 13 16 17 17 17 16 14 11 9 7 7 7 8 9 8 9 9 8 6 7 10 13 14 15 17 19 23 27 30 30 27 27
8 8 7 9 5 4 8 3 2 6 12 13 16 15 18 18 15 13 12 9 6 5 5 6 7 7 7 7 7 6 7 9 12 13 14 16 19 21 24 28 28 27 24 25
3 2 3 4 4 3 7 3 5 11 13 15 16 17 15 15 13 11 9 6 4 3 4 5 6 7 7 7 6 7 8 11 11 12 14 17 21 24 26 24 22 24 25 26
1 9 7 2 2 4 6 6 12 15 17 18 16 13 12 12 10 8 6 4 4 4 5 6 7 8 9 6 8 9 10 9 11 13 17 20 22 24 24 23 23 24 24 23
7 5 5 3 13 4 11 17 17 18 18 16 15 13 11 9 7 5 3 3 5 6 7 7 9 9 9 8 8 9 8 9 12 16 19 21 23 23 22 24 29 24 22 23
Wind_Direction
208 208 215 211 222 231 215 208 219 214 223 221 228 245 246 234 247 245 245 204 189 171 144 119 110 107 105 101 97 95 101 104 113 121 125 126 121 114 107 93 82 68 43 24
222 221 224 219 227 225 236 226 215 219 169 204 236 237 245 237 244 249 225 212 189 168 150 132 121 113 107 104 103 104 106 109 115 127 129 125 117 105 95 85 66 47 29 12
221 228 221 222 212 222 230 223 227 197 191 216 255 261 254 247 245 231 230 203 185 175 158 144 133 122 114 111 110 108 108 109 109 109 108 106 100 92 83 67 43 25 8 360
235 251 245 215 217 226 219 220 226 174 197 219 198 271 206 194 192 194 196 189 180 171 160 149 139 129 125 119 116 113 113 114 115 120 118 119 111 94 75 51 27 5 359 354
218 239 232 210 221 228 215 198 191 193 201 281 217 241 258 192 196 194 197 183 176 171 163 155 146 137 133 128 124 120 120 120 118 114 110 107 99 87 67 37 17 5 353 347
231 270 215 206 229 225 220 175 155 190 182 223 233 210 257 192 210 193 184 180 174 170 165 158 149 143 140 135 131 129 129 123 119 117 111 102 90 75 45 23 10 1 350 342
198 250 308 228 228 226 166 182 163 155 183 218 190 212 240 109 113 165 177 176 174 171 166 164 156 151 146 144 140 137 137 132 131 125 114 100 78 45 22 8 355 348 341 333
183 199 201 201 245 169 169 183 166 163 183 195 148 219 226 96 125 174 179 176 173 174 173 170 164 157 154 150 149 149 150 146 143 139 134 116 76 28 358 345 342 339 333 324
161 254 239 254 195 158 190 218 60 118 43 157 169 225 156 170 161 176 177 175 177 178 178 174 168 164 158 158 156 164 165 164 163 162 155 140 30 350 343 339 338 335 328 323
307 272 308 226 127 9 216 175 180 226 155 181 165 182 134 175 166 180 189 181 179 180 178 176 173 168 163 165 173 176 181 185 187 185 182 207 325 336 337 337 335 331 325 317
259 197 280 241 142 152 174 172 235 273 356 211 154 172 107 119 146 174 191 184 182 180 179 179 177 172 170 179 184 190 195 198 200 201 214 262 307 324 331 332 333 328 323 318
209 171 214 77 70 166 166 204 218 208 161 266 337 109 141 98 128 175 175 182 182 182 182 180 178 177 179 185 192 197 200 206 211 217 237 273 302 318 326 330 329 326 320 317
183 176 114 98 89 61 188 233 205 238 321 219 218 126 148 130 125 154 161 175 175 182 181 181 182 184 185 187 194 200 203 213 218 227 248 278 303 318 327 326 324 323 319 318
302 263 239 164 178 147 190 206 205 212 224 229 218 135 155 152 148 150 157 172 179 183 184 185 186 190 189 191 195 199 205 217 225 235 253 285 309 321 324 324 325 323 321 319
274 286 230 245 52 173 186 191 209 222 232 232 222 235 206 176 176 169 166 171 178 186 188 190 189 192 192 192 194 200 210 219 228 237 264 299 315 323 326 326 325 322 320 319
222 301 296 199 262 225 210 208 208 219 226 233 244 240 270 214 164 179 186 183 189 191 191 193 194 194 195 195 194 205 213 221 227 246 284 310 322 328 327 326 323 319 320 321
199 244 238 192 183 202 249 227 215 225 231 232 234 237 248 181 193 204 206 192 194 195 195 194 196 196 195 193 195 203 210 222 232 264 302 319 327 328 325 322 320 322 322 318
192 230 274 133 176 217 14 357 229 221 233 231 240 241 316 186 198 181 173 184 169 167 168 173 179 181 184 186 190 195 213 220 241 279 307 322 327 326 322 321 323 321 317 315
171 217 178 203 219 311 276 212 190 203 238 235 234 234 174 124 121 114 117 135 136 132 137 154 166 176 186 192 196 206 209 228 258 294 312 324 324 320 320 324 321 320 317 318
165 207 252 203 222 231 57 126 134 179 262 238 213 218 160 156 185 153 148 137 133 139 148 161 173 182 182 186 196 200 214 235 282 307 320 325 318 319 322 323 321 320 320 318
129 201 166 143 262 282 93 137 148 200 36 85 168 165 162 175 78 136 145 137 141 140 145 154 160 163 174 189 190 190 226 263 296 316 324 316 317 320 321 320 322 322 319 316
163 150 164 161 225 254 134 131 210 81 108 133 136 150 149 124 121 125 133 137 136 137 144 151 157 170 183 190 196 219 251 290 312 317 311 315 322 322 322 323 323 319 318 314
201 218 172 197 204 104 166 35 43 154 141 138 136 135 135 129 130 134 135 139 145 152 159 165 174 185 193 202 215 245 284 306 309 309 317 320 321 324 322 320 320 318 314 313
219 196 200 172 161 145 174 131 136 148 141 140 137 133 131 129 134 131 135 144 157 181 195 194 198 198 209 225 241 275 285 298 303 313 317 322 324 322 322 317 313 310 310 309
61 154 175 131 174 149 180 164 142 138 139 136 130 126 123 132 126 136 144 163 197 226 230 224 211 205 223 244 261 267 282 297 311 317 322 322 320 318 318 314 312 308 307 303
190 173 196 230 169 177 163 160 156 147 142 143 142 135 134 135 152 168 196 244 256 249 238 225 217 223 231 240 256 273 290 307 314 318 319 320 318 317 313 312 314 314 309 308
Height
1472 1475 1469 1464 1465 1466 1458 1459 1453 1449 1448 1452 1456 1458 1452 1453 1454 1454 1456 1458 1463 1466 1468 1468 1468 1469 1469 1469 1470 1471 1473 1475 1477 1478 1479 1480 1480 1481 1482 1483 1485 1486 1486 1485
1471 1466 1459 1458 1462 1464 1455 1452 1445 1443 1447 1455 1453 1451 1445 1446 1448 1447 1451 1455 1460 1465 1467 1468 1469 1470 1470 1469 1470 1472 1473 1475 1476 1477 1478 1479 1480 1482 1483 1484 1485 1485 1485 1484
1459 1454 1453 1454 1462 1460 1452 1452 1442 1448 1449 1453 1453 1451 1443 1441 1442 1445 1448 1451 1458 1462 1465 1467 1469 1469 1469 1469 1470 1472 1473 1474 1477 1478 1479 1480 1481 1483 1484 1486 1486 1485 1484 1483
1453 1455 1453 1446 1452 1457 1450 1445 1438 1442 1450 1456 1446 1448 1422 1425 1439 1443 1445 1448 1455 1460 1465 1467 1468 1468 1468 1469 1471 1473 1474 1476 1478 1479 1479 1481 1482 1483 1485 1485 1485 1485 1483 1481
1447 1447 1449 1442 1440 1449 1442 1433 1435 1443 1444 1454 1453 1452 1427 1418 1429 1435 1439 1445 1453 1459 1463 1465 1466 1467 1467 1469 1471 1473 1474 1476 1478 1479 1480 1481 1482 1483 1484 1485 1484 1483 1481 1479
1439 1439 1439 1433 1440 1443 1439 1434 1442 1444 1446 1457 1439 1440 1423 1418 1421 1424 1436 1444 1451 1457 1461 1465 1465 1466 1467 1469 1471 1473 1475 1476 1478 1479 1481 1482 1483 1483 1484 1484 1483 1482 1480 1478
1439 1442 1437 1435 1439 1436 1425 1440 1452 1454 1459 1446 1423 1430 1420 1419 1421 1422 1432 1442 1450 1456 1459 1462 1463 1465 1467 1469 1471 1473 1475 1476 1478 1479 1480 1481 1482 1483 1483 1482 1482 1481 1479 1477
1429 1432 1430 1429 1426 1428 1427 1432 1424 1437 1440 1432 1435 1438 1418 1416 1421 1424 1432 1440 1448 1454 1458 1461 1463 1465 1466 1468 1470 1473 1475 1476 1478 1479 1479 1480 1481 1482 1481 1481 1481 1479 1477 1474
1423 1421 1421 1420 1417 1417 1429 1423 1409 1411 1407 1415 1425 1418 1418 1418 1423 1426 1430 1437 1444 1450 1455 1459 1462 1464 1465 1467 1470 1472 1474 1475 1477 1478 1479 1480 1480 1480 1480 1479 1478 1476 1474 1471
1429 1425 1423 1412 1413 1421 1419 1408 1423 1411 1427 1425 1416 1413 1410 1418 1418 1424 1427 1433 1441 1447 1453 1457 1460 1463 1465 1466 1468 1471 1472 1474 1476 1477 1478 1479 1479 1479 1478 1477 1475 1473 1470 1467
1427 1430 1422 1411 1408 1418 1425 1419 1416 1403 1407 1409 1415 1412 1399 1412 1415 1420 1424 1429 1437 1444 1450 1454 1458 1461 1463 1464 1467 1469 1471 1473 1475 1476 1476 1477 1477 1476 1475 1474 1472 1469 1467 1464
1417 1420 1416 1408 1408 1411 1415 1417 1410 1410 1422 1411 1412 1415 1408 1413 1416 1418 1421 1427 1434 1441 1447 1452 1456 1459 1460 1463 1465 1467 1469 1471 1472 1474 1475 1475 1475 1474 1472 1470 1468 1466 1464 1461
1404 1403 1410 1417 1418 1420 1420 1412 1412 1409 1408 1411 1416 1412 1408 1412 1416 1419 1420 1425 1432 1439 1445 1449 1453 1456 1459 1461 1463 1465 1467 1469 1470 1471 1472 1472 1472 1471 1469 1467 1465 1463 1461 1459
1401 1394 1387 1390 1388 1405 1417 1415 1410 1412 1415 1412 1409 1408 1411 1412 1415 1419 1422 1426 1432 1437 1442 1446 1450 1454 1457 1459 1461 1463 1465 1466 1468 1469 1470 1470 1470 1468 1467 1464 1462 1460 1458 1455
1404 1392 1384 1382 1383 1392 1399 1408 1412 1412 1408 1411 1404 1408 1402 1406 1412 1416 1420 1425 1430 1435 1439 1443 1447 1451 1454 1457 1459 1461 1462 1464 1465 1467 1467 1467 1467 1465 1463 1461 1459 1457 1455 1452
1406 1399 1391 1392 1394 1391 1396 1398 1402 1404 1403 1405 1402 1400 1397 1401 1407 1414 1419 1422 1427 1432 1437 1441 1445 1449 1452 1454 1456 1458 1460 1461 1463 1464 1465 1465 1464 1462 1460 1458 1456 1454 1451 1448
1406 1404 1394 1396 1397 1399 1404 1391 1395 1397 1397 1400 1401 1399 1398 1407 1409 1413 1417 1422 1425 1430 1435 1438 1442 1446 1449 1452 1454 1455 1457 1459 1461 1462 1462 1462 1460 1459 1457 1455 1453 1450 1447 1443
1399 1401 1400 1405 1400 1410 1383 1385 1383 1389 1388 1391 1393 1393 1400 1404 1410 1414 1418 1423 1427 1431 1434 1437 1440 1444 1447 1449 1452 1454 1455 1457 1458 1459 1459 1459 1457 1456 1454 1452 1449 1446 1443 1438
1399 1405 1406 1407 1406 1389 1379 1386 1386 1386 1386 1385 1387 1393 1400 1407 1414 1420 1422 1425 1429 1431 1433 1436 1439 1441 1443 1446 1448 1451 1453 1455 1456 1457 1457 1455 1454 1452 1451 1448 1445 1442 1437 1432
1404 1405 1409 1410 1406 1402 1385 1386 1388 1386 1390 1376 1381 1390 1398 1408 1411 1415 1423 1425 1427 1429 1431 1434 1437 1439 1441 1444 1447 1450 1451 1453 1454 1454 1453 1452 1451 1449 1447 1444 1441 1437 1432 1427
1411 1412 1413 1417 1413 1388 1384 1388 1390 1394 1389 1387 1387 1391 1401 1406 1407 1413 1419 1424 1427 1428 1431 1433 1436 1438 1441 1443 1446 1449 1450 1451 1452 1451 1450 1450 1448 1446 1443 1440 1436 1431 1427 1422
1400 1409 1410 1418 1415 1405 1387 1393 1390 1392 1392 1392 1393 1398 1404 1409 1413 1416 1420 1423 1426 1429 1431 1433 1436 1438 1440 1443 1445 1446 1448 1449 1449 1449 1449 1447 1446 1443 1439 1435 1431 1427 1422 1418
1387 1377 1380 1384 1385 1388 1390 1391 1391 1393 1394 1396 1399 1403 1406 1410 1414 1417 1420 1424 1427 1429 1431 1433 1436 1437 1439 1442 1443 1445 1446 1446 1446 1447 1446 1445 1442 1440 1436 1432 1428 1424 1420 1415
1380 1381 1376 1382 1386 1387 1390 1392 1392 1394 1396 1399 1402 1405 1408 1411 1415 1419 1421 1424 1427 1429 1431 1433 1435 1437 1438 1440 1442 1443 1444 1444 1444 1444 1443 1441 1438 1436 1432 1428 1425 1421 1416 1411
1375 1379 1378 1382 1387 1389 1390 1391 1391 1395 1398 1400 1403 1407 1410 1413 1417 1419 1422 1425 1427 1429 1430 1432 1434 1436 1437 1439 1440 1441 1442 1442 1442 1441 1440 1438 1435 1432 1428 1425 1421 1417 1412 1408
1374 1370 1372 1369 1373 1376 1381 1388 1392 1396 1399 1402 1405 1408 1412 1415 1417 1420 1423 1424 1426 1427 1429 1430 1432 1434 1435 1437 1438 1439 1440 1439 1439 1438 1437 1434 1431 1428 1425 1420 1414 1412 1407 1403